Weather Roundup
Issued by NWS Chicago, IL

Home | Current Version | Previous Version | Graphics & Text | Print | Product List | Glossary On
Versions: 1 2 3 4 5 6 7 8 9 10 11 12 13 14 15 16 17 18 19 20 21 22 23 24 25 26 27 28 29 30 31 32 33 34 35 36 37 38 39 40 41 42 43 44 45 46 47 48 49 50
000
NZUS59 KLOT 220704
HRRLOT

CHICAGO AREA WEATHER ROUNDUP
NATIONAL WEATHER SERVICE CHICAGO/ROMEOVILLE IL
200 AM CDT SUN OCT 22 2017

NOTE: "FAIR" INDICATES FEW OR NO CLOUDS BELOW 12,000 FEET WITH NO
SIGNIFICANT WEATHER AND/OR OBSTRUCTIONS TO VISIBILITY.

* THESE STATIONS ARE NOT UNDER NWS QUALITY CONTROL. THEY ALSO MAY NOT
  REPORT WEATHER SUCH AS PRECIPITATION OR FOG.

ILZ005-006-012>014-019>023-220800-
NORTHEAST ILLINOIS

CITY           SKY/WX    TMP DP  RH WIND       PRES   REMARKS
OHARE          MOCLDY    67  53  61 S17       29.98F
MIDWAY         MOCLDY    67  54  63 S16G23    30.00F
AURORA         CLOUDY    68  56  65 S14G22    29.97F
LANSING*       PTCLDY    63  54  73 S10       30.02F
JOLIET*        CLOUDY    68  56  66 S9        29.99F
WAUKEGAN       CLOUDY    68  55  63 S15       29.97F
DUPAGE AIRPORT CLOUDY    67  56  67 S16G26    29.97F
WHEELING       CLOUDY    68  55  63 S15       30.00F
KANKAKEE*      CLOUDY    66  55  65 S12G18    30.03F
MORRIS*        CLOUDY    66  55  66 S13       29.97F
LEWIS AIRPORT* CLOUDY    66  55  67 S15G22    29.99F
NORTHERLY ISL    N/A     67  51  56 S10         N/A
$$

WIZ051-052-058>065-066-070>072-220800-
SOUTHEAST WISCONSIN

CITY           SKY/WX    TMP DP  RH WIND       PRES   REMARKS
MILWAUKEE      MOCLDY    66  57  72 S10       29.95F
KENOSHA*       CLOUDY    68  55  63 S14       29.97F
RACINE*        CLOUDY    62  56  80 S10       29.98F
WAUKESHA       MOCLDY    64  54  68 S12G18    29.95S
WEST BEND      CLOUDY    68  54  60 S10G21    29.93F
$$

INZ001>003-010>013-019-020-220800-
NORTHWEST INDIANA

CITY           SKY/WX    TMP DP  RH WIND       PRES   REMARKS
GARY*          CLEAR     66  50  55 S9G16     30.03F
MICHIGAN CITY* NOT AVBL
RENSSELAER*    NOT AVBL
VALPARAISO     PTCLDY    63  52  67 SE8       30.06F
$$

LMZ740>746-220800-
SOUTHERN LAKE MICHIGAN

STATION/POSITION TIME  SKY/WX   TEMP WIND        PRES    VSBY
                                AIR  DIR/SP/G
                 (UTC)          (F)  (DEG/KT/KT) (MB)    (MI)
HARRISON CRIB    0640            66  190/ 20/ 22   N/A
BURNHAM HARBOR   0700            66  180/ 11/ 16   N/A
CALUMET HARBOR   0630            66  170/ 12/ 15 1015.8S
BURNS HARBOR     0640            65  180/ 14/ 19 1017.3S
MICHIGAN CITY    0640            65  150/ 14/ 18   N/A
$$

ABBREVIATIONS USED IN REMARKS
   TC - TEMPERATURE IN CELSIUS
  WCI - WIND CHILL INDEX
   HX - HEAT INDEX
  VSB - VISIBILITY
$$



USA.gov is the U.S. government's official web portal to all federal, state and local government web resources and services.